This is the latest recevied weather packets stored in our database for station/object N5PA. If no packets are shown the sender has not sent any weather packets the latest 10 day(s).
| Time | Temp. | Humidity | Pressure | Rain* | Wind** | Luminosity | Snow |
|---|---|---|---|---|---|---|---|
| 1778166308 | 18.33° C | 54% | 1015.4 hPa | 0 mm | - | 1028 W/m² | - |
| 1778166007 | 17.78° C | 48% | 1015.4 hPa | 0 mm | - | 1028 W/m² | - |
| 1778165707 | 17.78° C | 45% | 1015.4 hPa | 0 mm | - | 1028 W/m² | - |
| 1778165406 | 17.78° C | 41% | 1015.4 hPa | 0 mm | - | 1028 W/m² | - |
| 1778165108 | 17.78° C | 40% | 1015.5 hPa | 0 mm | - | 1028 W/m² | - |
| 1778164807 | 17.78° C | 39% | 1015.6 hPa | 0 mm | - | 1028 W/m² | - |
| 1778164508 | 17.22° C | 39% | 1015.6 hPa | 0 mm | - | 1030 W/m² | - |
| 1778164208 | 17.22° C | 37% | 1015.5 hPa | 0 mm | - | 1028 W/m² | - |
| 1778163907 | 17.22° C | 35% | 1015.6 hPa | 0 mm | - | 1028 W/m² | - |
| 1778163608 | 17.22° C | 36% | 1015.7 hPa | 0 mm | - | 1028 W/m² | - |
| 1778163308 | 17.22° C | 37% | 1015.6 hPa | 0 mm | - | 1028 W/m² | - |
| 1778163007 | 17.22° C | 37% | 1015.6 hPa | 0 mm | - | 1028 W/m² | - |
| 1778162707 | 17.22° C | 36% | 1015.6 hPa | 0 mm | - | 1028 W/m² | - |
| 1778162406 | 17.22° C | 35% | 1015.4 hPa | 0 mm | - | 1028 W/m² | - |
| 1778162108 | 17.22° C | 33% | 1015.4 hPa | 0 mm | - | 1028 W/m² | - |
| 1778161807 | 17.22° C | 30% | 1015.2 hPa | 0 mm | - | 1028 W/m² | - |
| 1778161506 | 17.22° C | 29% | 1015.1 hPa | 0 mm | - | 1027 W/m² | - |
| 1778161208 | 17.22° C | 29% | 1015 hPa | 0 mm | - | 1025 W/m² | - |
| 1778160908 | 16.67° C | 30% | 1015.2 hPa | 0 mm | - | 1025 W/m² | - |
| 1778160608 | 17.22° C | 29% | 1015.2 hPa | 0 mm | - | 1025 W/m² | - |
| 1778160307 | 17.22° C | 29% | 1015.3 hPa | 0 mm | - | 1025 W/m² | - |
| 1778160007 | 17.22° C | 29% | 1015.3 hPa | 0 mm | - | 1025 W/m² | - |
| 1778159707 | 17.22° C | 29% | 1015.1 hPa | 0 mm | - | 1027 W/m² | - |
| 1778159406 | 17.22° C | 29% | 1015.1 hPa | 0 mm | - | 1025 W/m² | - |
| 1778159107 | 17.22° C | 28% | 1015.1 hPa | 0 mm | - | 1025 W/m² | - |
* Rain latest hour (hover to see other rain measurements)
** Current wind speed in m/s (hover to see current wind gust speed)